Location: Clatteringshaws Loch
(55.0508°N, 4.2860°W)
Time: 13:30:23
(UTC+01:00)

SR - Visible Passes

Search period start: 17 April 2014 00:00
Search period end: 27 April 2014 00:00
Orbit: 581 x 886 km, 66.7° (Epoch: 16 April)

Date Brightness Start Highest point End Pass type
(mag) Time Alt. Az. Time Alt. Az. Time Alt. Az.
17 Apr ? 21:05:50 10° NW 21:10:56 67° NE 21:16:29 10° SE visible
17 Apr ? 22:48:15 10° NW 22:52:56 33° WSW 22:56:15 18° S visible
18 Apr ? 21:59:58 10° NW 22:05:03 53° WSW 22:09:45 14° SSE visible
18 Apr ? 23:44:22 10° W 23:46:17 12° WSW 23:48:14 10° SW visible
19 Apr ? 21:11:50 10° NW 21:17:02 82° SW 21:22:40 10° SE visible
19 Apr ? 22:54:49 10° WNW 22:58:40 20° WSW 23:02:41 10° SSW visible
20 Apr ? 22:06:13 10° NW 22:10:54 33° WSW 22:15:53 10° S visible
21 Apr ? 21:17:55 10° NW 21:23:00 52° WSW 21:28:29 10° SSE visible
21 Apr ? 23:02:25 10° W 23:04:13 12° WSW 23:06:03 10° WSW visible
22 Apr ? 22:12:47 10° WNW 22:16:36 20° WSW 22:20:35 10° SSW visible
23 Apr ? 21:24:09 10° NW 21:28:50 32° WSW 21:33:48 10° S visible
24 Apr ? 22:20:28 10° W 22:22:08 11° WSW 22:23:50 10° WSW visible
25 Apr ? 21:30:43 10° WNW 21:34:31 20° WSW 21:38:28 10° SSW visible
